Time,TemperatureF,DewpointF,PressureIn,WindDirection,WindDirectionDegrees,WindSpeedMPH,WindSpeedGustMPH,Humidity,HourlyPrecipIn,Conditions,Clouds,dailyrainin,SoftwareType,DateUTC
2013-04-12 00:00:00,39.9,32.3,29.80,West,271,1.7,3.5,74,0.00,,,0.00,WeatherDisplay:10.37,2013-04-12 05:00:00,
2013-04-12 00:05:00,39.8,32.2,29.80,West,262,2.8,4.0,74,0.00,,,0.00,WeatherDisplay:10.37,2013-04-12 05:05:00,
2013-04-12 00:10:00,39.8,31.8,29.80,West,264,1.4,3.0,73,0.00,,,0.00,WeatherDisplay:10.37,2013-04-12 05:10:00,
2013-04-12 00:15:00,39.9,31.9,29.80,West,266,2.0,3.5,73,0.00,,,0.00,WeatherDisplay:10.37,2013-04-12 05:15:00,
2013-04-12 00:20:00,39.9,31.9,29.80,WSW,258,1.5,2.3,73,0.00,,,0.00,WeatherDisplay:10.37,2013-04-12 05:20:00,
2013-04-12 00:25:00,39.7,31.8,29.80,WSW,256,2.2,3.5,73,0.00,,,0.00,WeatherDisplay:10.37,2013-04-12 05:25:00,
2013-04-12 00:31:00,39.5,31.9,29.80,West,270,1.1,2.3,74,0.00,,,0.00,WeatherDisplay:10.37,2013-04-12 05:31:00,
2013-04-12 00:36:00,39.2,31.9,29.81,West,266,1.6,2.3,75,0.00,,,0.00,WeatherDisplay:10.37,2013-04-12 05:36:00,
2013-04-12 00:41:00,39.1,31.8,29.80,West,277,1.7,3.5,75,0.00,,,0.00,WeatherDisplay:10.37,2013-04-12 05:41:00,
2013-04-12 00:46:00,39.1,31.8,29.81,West,260,2.0,2.3,75,0.00,,,0.00,WeatherDisplay:10.37,2013-04-12 05:46:00,
2013-04-12 00:51:00,39.3,31.7,29.81,West,263,2.1,2.3,74,0.00,,,0.00,WeatherDisplay:10.37,2013-04-12 05:51:00,
2013-04-12 00:56:00,39.5,31.9,29.81,WNW,285,2.1,3.5,74,0.00,,,0.00,WeatherDisplay:10.37,2013-04-12 05:56:00,
2013-04-12 01:01:00,39.6,32.0,29.81,West,262,2.1,4.0,74,0.00,,,0.00,WeatherDisplay:10.37,2013-04-12 06:01:00,
2013-04-12 01:06:00,40.0,32.0,29.81,West,281,2.1,3.5,73,0.00,,,0.00,WeatherDisplay:10.37,2013-04-12 06:06:00,
2013-04-12 01:11:00,40.2,31.9,29.81,West,262,1.6,3.5,72,0.00,,,0.00,WeatherDisplay:10.37,2013-04-12 06:11:00,
2013-04-12 01:16:00,40.2,31.9,29.81,West,271,1.1,3.5,72,0.00,,,0.00,WeatherDisplay:10.37,2013-04-12 06:16:00,
2013-04-12 01:21:00,40.2,31.9,29.81,West,272,0.7,1.1,72,0.00,,,0.00,WeatherDisplay:10.37,2013-04-12 06:21:00,
2013-04-12 01:26:00,40.1,31.8,29.80,West,270,1.7,2.3,72,0.00,,,0.00,WeatherDisplay:10.37,2013-04-12 06:26:00,
2013-04-12 01:31:00,40.1,31.8,29.80,West,271,1.2,3.5,72,0.00,,,0.00,WeatherDisplay:10.37,2013-04-12 06:31:00,
2013-04-12 01:36:00,40.0,31.7,29.80,West,276,1.1,3.5,72,0.00,,,0.00,WeatherDisplay:10.37,2013-04-12 06:36:00,
2013-04-12 01:41:00,39.9,31.6,29.80,West,260,1.1,2.3,72,0.00,,,0.00,WeatherDisplay:10.37,2013-04-12 06:41:00,
2013-04-12 01:46:00,39.5,31.6,29.80,WSW,246,0.7,1.1,73,0.00,,,0.00,WeatherDisplay:10.37,2013-04-12 06:46:00,
2013-04-12 01:51:00,39.1,31.5,29.80,WSW,240,0.6,1.1,74,0.00,,,0.00,WeatherDisplay:10.37,2013-04-12 06:51:00,
2013-04-12 01:56:00,38.7,31.5,29.80,SW,235,1.3,2.0,75,0.00,,,0.00,WeatherDisplay:10.37,2013-04-12 06:56:00,
2013-04-12 02:01:00,38.7,31.5,29.80,WSW,241,0.6,1.1,75,0.00,,,0.00,WeatherDisplay:10.37,2013-04-12 07:01:00,
2013-04-12 02:06:00,38.7,31.5,29.80,WSW,252,0.8,1.1,75,0.00,,,0.00,WeatherDisplay:10.37,2013-04-12 07:06:00,
2013-04-12 02:11:00,38.6,31.7,29.80,WSW,252,0.1,0.0,76,0.00,,,0.00,WeatherDisplay:10.37,2013-04-12 07:11:00,
2013-04-12 02:17:00,38.6,31.7,29.80,WSW,255,1.0,2.3,76,0.00,,,0.00,WeatherDisplay:10.37,2013-04-12 07:17:00,
2013-04-12 02:22:00,38.6,31.7,29.80,West,260,0.3,1.1,76,0.00,,,0.00,WeatherDisplay:10.37,2013-04-12 07:22:00,
2013-04-12 02:27:00,38.8,31.6,29.80,West,270,1.4,2.3,75,0.00,,,0.00,WeatherDisplay:10.37,2013-04-12 07:27:00,
2013-04-12 02:32:00,39.0,31.4,29.80,WSW,252,2.4,3.5,74,0.00,,,0.00,WeatherDisplay:10.37,2013-04-12 07:32:00,
2013-04-12 02:37:00,39.2,31.6,29.80,West,276,1.6,3.5,74,0.00,,,0.00,WeatherDisplay:10.37,2013-04-12 07:37:00,
2013-04-12 02:42:00,39.2,31.6,29.79,WSW,253,0.9,2.3,74,0.00,,,0.00,WeatherDisplay:10.37,2013-04-12 07:42:00,
2013-04-12 02:47:00,39.1,31.5,29.79,WSW,255,1.3,1.3,74,0.00,,,0.00,WeatherDisplay:10.37,2013-04-12 07:47:00,
2013-04-12 02:52:00,39.1,31.5,29.79,WSW,245,0.3,1.1,74,0.00,,,0.00,WeatherDisplay:10.37,2013-04-12 07:52:00,
2013-04-12 02:57:00,39.0,31.4,29.79,West,266,1.0,1.1,74,0.00,,,0.00,WeatherDisplay:10.37,2013-04-12 07:57:00,
2013-04-12 03:03:00,38.9,31.3,29.79,WSW,250,1.1,2.3,74,0.00,,,0.00,WeatherDisplay:10.37,2013-04-12 08:03:00,
2013-04-12 03:08:00,39.0,31.4,29.80,West,266,2.5,2.5,74,0.00,,,0.00,WeatherDisplay:10.37,2013-04-12 08:08:00,
2013-04-12 03:13:00,38.5,31.3,29.79,WSW,252,0.7,1.1,75,0.00,,,0.00,WeatherDisplay:10.37,2013-04-12 08:13:00,
2013-04-12 03:18:00,38.2,31.3,29.79,WSW,252,1.0,2.3,76,0.00,,,0.00,WeatherDisplay:10.37,2013-04-12 08:18:00,
2013-04-12 03:23:00,38.0,31.1,29.79,WSW,249,1.0,2.3,76,0.00,,,0.00,WeatherDisplay:10.37,2013-04-12 08:23:00,
2013-04-12 03:28:00,37.9,31.3,29.79,West,259,0.7,1.1,77,0.00,,,0.00,WeatherDisplay:10.37,2013-04-12 08:28:00,
2013-04-12 03:33:00,38.0,31.4,29.79,West,262,1.0,1.1,77,0.00,,,0.00,WeatherDisplay:10.37,2013-04-12 08:33:00,
2013-04-12 03:38:00,38.0,31.4,29.80,West,271,0.1,1.1,77,0.00,,,0.00,WeatherDisplay:10.37,2013-04-12 08:38:00,
2013-04-12 03:43:00,38.1,31.5,29.80,WNW,283,1.0,1.1,77,0.00,,,0.00,WeatherDisplay:10.37,2013-04-12 08:43:00,
2013-04-12 03:48:00,38.1,31.2,29.80,West,271,0.6,1.1,76,0.00,,,0.00,WeatherDisplay:10.37,2013-04-12 08:48:00,
2013-04-12 03:53:00,38.5,31.6,29.80,West,281,2.5,3.5,76,0.00,,,0.00,WeatherDisplay:10.37,2013-04-12 08:53:00,
2013-04-12 03:58:00,38.4,31.5,29.81,WNW,289,2.7,3.5,76,0.00,,,0.00,WeatherDisplay:10.37,2013-04-12 08:58:00,
2013-04-12 04:03:00,38.2,31.3,29.81,WNW,285,2.6,3.5,76,0.00,,,0.00,WeatherDisplay:10.37,2013-04-12 09:03:00,
2013-04-12 04:08:00,38.2,31.3,29.82,WNW,296,2.0,3.5,76,0.00,,,0.00,WeatherDisplay:10.37,2013-04-12 09:08:00,
2013-04-12 04:13:00,37.9,31.3,29.82,WNW,288,2.7,4.6,77,0.00,,,0.00,WeatherDisplay:10.37,2013-04-12 09:13:00,
2013-04-12 04:18:00,37.9,31.7,29.82,West,276,3.2,3.5,78,0.00,,,0.00,WeatherDisplay:10.37,2013-04-12 09:18:00,
2013-04-12 04:23:00,37.7,31.5,29.83,WNW,285,3.4,5.8,78,0.00,,,0.00,WeatherDisplay:10.37,2013-04-12 09:23:00,
2013-04-12 04:28:00,37.5,31.3,29.83,West,267,1.5,2.3,78,0.00,,,0.00,WeatherDisplay:10.37,2013-04-12 09:28:00,
2013-04-12 04:33:00,37.4,31.5,29.83,West,271,2.4,3.5,79,0.00,,,0.00,WeatherDisplay:10.37,2013-04-12 09:33:00,
2013-04-12 04:38:00,37.3,31.4,29.83,West,260,2.0,3.5,79,0.00,,,0.00,WeatherDisplay:10.37,2013-04-12 09:38:00,
2013-04-12 04:43:00,37.2,31.6,29.83,West,280,2.6,3.5,80,0.00,,,0.00,WeatherDisplay:10.37,2013-04-12 09:43:00,
2013-04-12 04:48:00,37.2,31.6,29.84,WNW,302,3.6,4.6,80,0.00,,,0.00,WeatherDisplay:10.37,2013-04-12 09:48:00,
2013-04-12 04:53:00,37.5,31.9,29.83,WNW,283,3.8,4.6,80,0.00,,,0.00,WeatherDisplay:10.37,2013-04-12 09:53:00,
2013-04-12 04:58:00,37.4,31.8,29.84,WNW,296,2.0,2.3,80,0.00,,,0.00,WeatherDisplay:10.37,2013-04-12 09:58:00,
2013-04-12 05:03:00,37.3,31.7,29.84,WNW,290,3.6,3.6,80,0.00,,,0.00,WeatherDisplay:10.37,2013-04-12 10:03:00,
2013-04-12 05:08:00,37.3,31.7,29.84,West,279,3.6,4.6,80,0.00,,,0.00,WeatherDisplay:10.37,2013-04-12 10:08:00,
2013-04-12 05:13:00,37.3,31.7,29.85,WNW,287,2.5,5.0,80,0.00,,,0.00,WeatherDisplay:10.37,2013-04-12 10:13:00,
2013-04-12 05:18:00,37.4,31.8,29.84,WNW,290,2.9,3.5,80,0.00,,,0.00,WeatherDisplay:10.37,2013-04-12 10:18:00,
2013-04-12 05:23:00,37.4,31.8,29.85,WNW,298,4.6,5.8,80,0.00,,,0.00,WeatherDisplay:10.37,2013-04-12 10:23:00,
2013-04-12 05:28:00,37.4,31.8,29.84,WNW,290,3.0,4.6,80,0.00,,,0.00,WeatherDisplay:10.37,2013-04-12 10:28:00,
2013-04-12 05:33:00,37.2,31.9,29.85,NW,307,3.5,6.9,81,0.00,,,0.00,WeatherDisplay:10.37,2013-04-12 10:33:00,
2013-04-12 05:39:00,37.2,31.9,29.85,WNW,298,4.3,6.0,81,0.00,,,0.00,WeatherDisplay:10.37,2013-04-12 10:39:00,
2013-04-12 05:44:00,37.1,31.8,29.85,WNW,294,5.2,6.9,81,0.00,,,0.00,WeatherDisplay:10.37,2013-04-12 10:44:00,
2013-04-12 05:49:00,37.0,32.0,29.85,WNW,302,2.5,3.5,82,0.00,,,0.00,WeatherDisplay:10.37,2013-04-12 10:49:00,
2013-04-12 05:54:00,36.9,31.9,29.85,NW,313,2.6,8.1,82,0.00,,,0.00,WeatherDisplay:10.37,2013-04-12 10:54:00,
2013-04-12 05:59:00,36.6,31.6,29.85,WNW,293,3.2,3.5,82,0.00,,,0.00,WeatherDisplay:10.37,2013-04-12 10:59:00,
2013-04-12 06:04:00,36.5,31.8,29.85,West,270,3.1,3.5,83,0.00,,,0.00,WeatherDisplay:10.37,2013-04-12 11:04:00,
2013-04-12 06:09:00,36.3,31.6,29.85,West,277,3.7,4.6,83,0.00,,,0.00,WeatherDisplay:10.37,2013-04-12 11:09:00,
2013-04-12 06:14:00,36.2,31.5,29.85,NW,305,4.0,6.9,83,0.00,CLR,,0.00,WeatherDisplay:10.37,2013-04-12 11:14:00,
2013-04-12 06:19:00,36.1,31.4,29.85,NW,308,4.3,9.2,83,0.00,CLR,,0.00,WeatherDisplay:10.37,2013-04-12 11:19:00,
2013-04-12 06:24:00,36.0,31.3,29.86,WNW,297,3.3,5.8,83,0.00,CLR,,0.00,WeatherDisplay:10.37,2013-04-12 11:24:00,
2013-04-12 06:29:00,36.1,31.4,29.86,WNW,288,3.0,4.6,83,0.00,CLR,,0.00,WeatherDisplay:10.37,2013-04-12 11:29:00,
2013-04-12 06:34:00,36.0,31.3,29.86,NW,305,3.8,5.8,83,0.00,CLR,,0.00,WeatherDisplay:10.37,2013-04-12 11:34:00,
2013-04-12 06:39:00,35.7,31.0,29.86,WNW,295,2.9,3.5,83,0.00,CLR,,0.00,WeatherDisplay:10.37,2013-04-12 11:39:00,
2013-04-12 06:44:00,35.7,31.0,29.86,WNW,296,5.8,8.1,83,0.00,CLR,,0.00,WeatherDisplay:10.37,2013-04-12 11:44:00,
2013-04-12 06:49:00,35.7,31.0,29.86,NW,308,5.1,9.2,83,0.00,CLR,,0.00,WeatherDisplay:10.37,2013-04-12 11:49:00,
2013-04-12 06:54:00,35.6,30.9,29.86,NW,312,4.7,8.1,83,0.00,CLR,,0.00,WeatherDisplay:10.37,2013-04-12 11:54:00,
2013-04-12 06:59:00,35.7,31.0,29.87,WNW,295,3.6,4.6,83,0.00,CLR,,0.00,WeatherDisplay:10.37,2013-04-12 11:59:00,
2013-04-12 07:04:00,35.7,31.0,29.87,WNW,295,3.6,4.6,83,0.00,CLR,,0.00,WeatherDisplay:10.37,2013-04-12 12:04:00,
2013-04-12 07:09:00,35.7,31.0,29.87,WNW,301,3.0,4.6,83,0.00,CLR,,0.00,WeatherDisplay:10.37,2013-04-12 12:09:00,
2013-04-12 07:14:00,35.7,31.0,29.87,NW,311,3.4,5.8,83,0.00,CLR,,0.00,WeatherDisplay:10.37,2013-04-12 12:14:00,
2013-04-12 07:19:00,35.9,31.2,29.88,NW,305,2.4,3.5,83,0.00,CLR,,0.00,WeatherDisplay:10.37,2013-04-12 12:19:00,
2013-04-12 07:24:00,35.9,30.9,29.88,WNW,296,3.7,6.9,82,0.00,CLR,,0.00,WeatherDisplay:10.37,2013-04-12 12:24:00,
2013-04-12 07:29:00,36.2,30.9,29.88,WNW,296,4.5,8.1,81,0.00,CLR,,0.00,WeatherDisplay:10.37,2013-04-12 12:29:00,
2013-04-12 07:34:00,36.3,30.7,29.88,NW,305,7.1,12.7,80,0.00,CLR,,0.00,WeatherDisplay:10.37,2013-04-12 12:34:00,
2013-04-12 07:39:00,36.4,30.2,29.88,NW,305,4.4,8.1,78,0.00,CLR,,0.00,WeatherDisplay:10.37,2013-04-12 12:39:00,
2013-04-12 07:44:00,36.6,30.1,29.88,WNW,295,6.5,9.2,77,0.00,CLR,,0.00,WeatherDisplay:10.37,2013-04-12 12:44:00,
2013-04-12 07:49:00,36.7,29.8,29.88,WNW,302,7.6,11.5,76,0.00,CLR,,0.00,WeatherDisplay:10.37,2013-04-12 12:49:00,
2013-04-12 07:54:00,36.9,30.4,29.89,WNW,303,5.4,8.1,77,0.00,CLR,,0.00,WeatherDisplay:10.37,2013-04-12 12:54:00,
2013-04-12 07:59:00,37.1,30.2,29.89,WNW,300,4.5,6.9,76,0.00,CLR,,0.00,WeatherDisplay:10.37,2013-04-12 12:59:00,
2013-04-12 08:04:00,37.2,30.3,29.89,NW,315,3.9,9.2,76,0.00,CLR,,0.00,WeatherDisplay:10.37,2013-04-12 13:04:00,
2013-04-12 08:09:00,37.4,30.5,29.89,NW,326,4.9,8.1,76,0.00,CLR,,0.00,WeatherDisplay:10.37,2013-04-12 13:09:00,
2013-04-12 08:14:00,37.6,30.4,29.90,WNW,302,2.7,4.6,75,0.00,CLR,,0.00,WeatherDisplay:10.37,2013-04-12 13:14:00,
2013-04-12 08:19:00,37.8,29.9,29.90,WNW,297,4.7,5.8,73,0.00,CLR,,0.00,WeatherDisplay:10.37,2013-04-12 13:19:00,
2013-04-12 08:24:00,38.0,29.4,29.90,WNW,301,10.5,17.3,71,0.00,CLR,,0.00,WeatherDisplay:10.37,2013-04-12 13:24:00,
2013-04-12 08:29:00,38.2,29.6,29.90,WNW,295,8.7,9.2,71,0.00,CLR,,0.00,WeatherDisplay:10.37,2013-04-12 13:29:00,
2013-04-12 08:34:00,38.2,29.3,29.90,NNW,332,7.6,11.5,70,0.00,CLR,,0.00,WeatherDisplay:10.37,2013-04-12 13:34:00,
2013-04-12 08:39:00,38.3,29.4,29.90,West,271,5.8,9.2,70,0.00,CLR,,0.00,WeatherDisplay:10.37,2013-04-12 13:39:00,
2013-04-12 08:44:00,38.5,28.9,29.90,WNW,296,9.9,13.8,68,0.00,CLR,,0.00,WeatherDisplay:10.37,2013-04-12 13:44:00,
2013-04-12 08:49:00,38.8,28.8,29.91,NW,307,8.9,13.8,67,0.00,CLR,,0.00,WeatherDisplay:10.37,2013-04-12 13:49:00,
2013-04-12 08:54:00,38.9,28.9,29.91,WNW,303,10.5,12.0,67,0.00,CLR,,0.00,WeatherDisplay:10.37,2013-04-12 13:54:00,
2013-04-12 08:59:00,38.9,28.1,29.91,NW,326,8.5,17.3,65,0.00,CLR,,0.00,WeatherDisplay:10.37,2013-04-12 13:59:00,
2013-04-12 09:04:00,39.2,28.8,29.91,NNW,328,7.8,9.2,66,0.00,CLR,,0.00,WeatherDisplay:10.37,2013-04-12 14:04:00,
2013-04-12 09:09:00,39.5,28.7,29.91,WNW,301,5.5,11.5,65,0.00,CLR,,0.00,WeatherDisplay:10.37,2013-04-12 14:09:00,
2013-04-12 09:14:00,39.6,28.8,29.91,NNW,327,6.0,11.5,65,0.00,CLR,,0.00,WeatherDisplay:10.37,2013-04-12 14:14:00,
2013-04-12 09:19:00,39.6,28.4,29.92,WNW,300,5.6,12.7,64,0.00,CLR,,0.00,WeatherDisplay:10.37,2013-04-12 14:19:00,
2013-04-12 09:24:00,39.6,28.4,29.92,NW,309,10.4,21.0,64,0.00,CLR,,0.00,WeatherDisplay:10.37,2013-04-12 14:24:00,
2013-04-12 09:29:00,39.6,27.6,29.92,NW,326,11.5,18.4,62,0.00,CLR,,0.00,WeatherDisplay:10.37,2013-04-12 14:29:00,
2013-04-12 09:35:00,39.7,27.7,29.91,WNW,295,14.5,15.0,62,0.00,CLR,,0.00,WeatherDisplay:10.37,2013-04-12 14:35:00,
2013-04-12 09:40:00,39.9,28.7,29.92,NW,305,10.0,12.0,64,0.00,CLR,,0.00,WeatherDisplay:10.37,2013-04-12 14:40:00,
2013-04-12 09:45:00,40.1,28.5,29.92,West,266,8.9,9.2,63,0.00,CLR,,0.00,WeatherDisplay:10.37,2013-04-12 14:45:00,
2013-04-12 09:50:00,40.4,28.8,29.92,NW,324,7.2,10.4,63,0.00,CLR,,0.00,WeatherDisplay:10.37,2013-04-12 14:50:00,
2013-04-12 09:55:00,41.2,29.5,29.92,West,277,5.3,9.2,63,0.00,CLR,,0.00,WeatherDisplay:10.37,2013-04-12 14:55:00,
2013-04-12 10:00:00,41.6,28.7,29.92,West,262,10.8,16.1,60,0.00,CLR,,0.00,WeatherDisplay:10.37,2013-04-12 15:00:00,
2013-04-12 10:05:00,41.3,28.9,29.93,WNW,301,7.6,11.5,61,0.00,CLR,,0.00,WeatherDisplay:10.37,2013-04-12 15:05:00,
2013-04-12 10:10:00,42.0,29.9,29.93,NW,317,6.4,11.5,62,0.00,CLR,,0.00,WeatherDisplay:10.37,2013-04-12 15:10:00,
2013-04-12 10:15:00,41.8,28.9,29.93,NW,307,6.0,11.5,60,0.00,CLR,,0.00,WeatherDisplay:10.37,2013-04-12 15:15:00,
2013-04-12 10:20:00,42.0,29.1,29.93,WNW,297,11.3,18.4,60,0.00,CLR,,0.00,WeatherDisplay:10.37,2013-04-12 15:20:00,
2013-04-12 10:25:00,42.3,29.0,29.93,WNW,298,12.0,20.7,59,0.00,CLR,,0.00,WeatherDisplay:10.37,2013-04-12 15:25:00,
2013-04-12 10:30:00,42.7,29.8,29.93,West,277,8.7,15.0,60,0.00,CLR,,0.00,WeatherDisplay:10.37,2013-04-12 15:30:00,
2013-04-12 10:35:00,42.6,29.3,29.94,WNW,293,11.2,17.3,59,0.00,CLR,,0.00,WeatherDisplay:10.37,2013-04-12 15:35:00,
2013-04-12 10:40:00,42.6,29.3,29.94,WNW,283,12.5,19.6,59,0.00,CLR,,0.00,WeatherDisplay:10.37,2013-04-12 15:40:00,
2013-04-12 10:45:00,42.8,30.3,29.94,NNW,328,7.5,10.4,61,0.00,CLR,,0.00,WeatherDisplay:10.37,2013-04-12 15:45:00,
2013-04-12 10:50:00,43.1,30.1,29.94,WNW,290,9.7,13.8,60,0.00,CLR,,0.00,WeatherDisplay:10.37,2013-04-12 15:50:00,
2013-04-12 10:55:00,44.1,31.1,29.94,WNW,294,6.4,11.5,60,0.00,CLR,,0.00,WeatherDisplay:10.37,2013-04-12 15:55:00,
2013-04-12 11:00:00,44.1,29.4,29.94,WNW,294,11.9,16.1,56,0.00,CLR,,0.00,WeatherDisplay:10.37,2013-04-12 16:00:00,
2013-04-12 11:05:00,44.0,30.2,29.94,WNW,301,6.0,11.5,58,0.00,CLR,,0.00,WeatherDisplay:10.37,2013-04-12 16:05:00,
2013-04-12 11:10:00,44.3,29.6,29.94,NW,307,9.6,19.6,56,0.00,CLR,,0.00,WeatherDisplay:10.37,2013-04-12 16:10:00,
2013-04-12 11:15:00,44.3,29.1,29.95,West,280,11.8,18.4,55,0.00,CLR,,0.00,WeatherDisplay:10.37,2013-04-12 16:15:00,
2013-04-12 11:20:00,44.9,30.6,29.95,WNW,299,9.4,13.0,57,0.00,CLR,,0.00,WeatherDisplay:10.37,2013-04-12 16:20:00,
2013-04-12 11:25:00,44.8,29.6,29.95,NW,317,13.2,18.4,55,0.00,CLR,,0.00,WeatherDisplay:10.37,2013-04-12 16:25:00,
2013-04-12 11:30:00,45.2,30.4,29.95,West,278,11.6,16.1,56,0.00,CLR,,0.00,WeatherDisplay:10.37,2013-04-12 16:30:00,
2013-04-12 11:35:00,45.1,29.9,29.95,WNW,283,11.3,18.4,55,0.00,CLR,,0.00,WeatherDisplay:10.37,2013-04-12 16:35:00,
2013-04-12 11:40:00,45.1,30.3,29.95,WSW,255,8.0,15.0,56,0.00,CLR,,0.00,WeatherDisplay:10.37,2013-04-12 16:40:00,
2013-04-12 11:45:00,45.9,30.2,29.96,West,269,8.8,12.7,54,0.00,CLR,,0.00,WeatherDisplay:10.37,2013-04-12 16:45:00,
2013-04-12 11:50:00,46.7,31.4,29.96,West,274,6.3,9.2,55,0.00,CLR,,0.00,WeatherDisplay:10.37,2013-04-12 16:50:00,
2013-04-12 11:55:00,46.4,29.7,29.96,WNW,284,11.0,15.0,52,0.00,CLR,,0.00,WeatherDisplay:10.37,2013-04-12 16:55:00,
2013-04-12 12:00:00,46.5,30.3,29.96,WNW,287,7.8,9.2,53,0.00,CLR,,0.00,WeatherDisplay:10.37,2013-04-12 17:00:00,
2013-04-12 12:05:00,46.5,30.3,29.96,NW,312,9.3,15.0,53,0.00,CLR,,0.00,WeatherDisplay:10.37,2013-04-12 17:05:00,
2013-04-12 12:10:00,47.4,30.2,29.96,WNW,285,9.6,11.5,51,0.00,CLR,,0.00,WeatherDisplay:10.37,2013-04-12 17:10:00,
2013-04-12 12:15:00,47.2,31.4,29.96,NNW,330,7.5,12.0,54,0.00,CLR,,0.00,WeatherDisplay:10.37,2013-04-12 17:15:00,
2013-04-12 12:20:00,47.9,30.6,29.96,West,276,7.7,11.0,51,0.00,CLR,,0.00,WeatherDisplay:10.37,2013-04-12 17:20:00,
2013-04-12 12:25:00,47.7,31.4,29.96,NW,312,8.0,11.5,53,0.00,CLR,,0.00,WeatherDisplay:10.37,2013-04-12 17:25:00,
2013-04-12 12:31:00,48.1,31.3,29.96,West,277,7.1,10.4,52,0.00,CLR,,0.00,WeatherDisplay:10.37,2013-04-12 17:31:00,
2013-04-12 12:36:00,49.2,31.8,29.96,WNW,297,13.2,17.3,51,0.00,CLR,,0.00,WeatherDisplay:10.37,2013-04-12 17:36:00,
2013-04-12 12:41:00,48.7,32.3,29.96,NW,317,8.2,12.0,53,0.00,CLR,,0.00,WeatherDisplay:10.37,2013-04-12 17:41:00,
2013-04-12 12:47:00,49.3,31.4,29.96,West,279,9.0,12.7,50,0.00,CLR,,0.00,WeatherDisplay:10.37,2013-04-12 17:47:00,
2013-04-12 12:53:00,49.4,32.5,29.97,West,265,5.6,8.1,52,0.00,CLR,,0.00,WeatherDisplay:10.37,2013-04-12 17:53:00,
2013-04-12 12:58:00,48.8,31.5,29.96,WNW,301,9.4,11.5,51,0.00,CLR,,0.00,WeatherDisplay:10.37,2013-04-12 17:58:00,
2013-04-12 13:03:00,48.8,31.5,29.96,WNW,300,8.4,14.0,51,0.00,CLR,,0.00,WeatherDisplay:10.37,2013-04-12 18:03:00,
2013-04-12 13:08:00,49.1,31.7,29.96,WNW,301,10.2,15.0,51,0.00,CLR,,0.00,WeatherDisplay:10.37,2013-04-12 18:08:00,
2013-04-12 13:13:00,48.9,32.0,29.96,NNW,345,8.5,11.5,52,0.00,CLR,,0.00,WeatherDisplay:10.37,2013-04-12 18:13:00,
2013-04-12 13:19:00,50.1,33.6,29.96,North,349,7.5,12.0,53,0.00,CLR,,0.00,WeatherDisplay:10.37,2013-04-12 18:19:00,
2013-04-12 13:24:00,50.1,32.7,29.95,WNW,303,6.2,13.0,51,0.00,CLR,,0.00,WeatherDisplay:10.37,2013-04-12 18:24:00,
2013-04-12 13:29:00,49.9,33.0,29.95,NNW,335,5.8,8.1,52,0.00,CLR,,0.00,WeatherDisplay:10.37,2013-04-12 18:29:00,
2013-04-12 14:26:00,52.6,34.5,29.95,West,281,5.4,8.0,50,0.00,CLR,,0.00,WeatherDisplay:10.37,2013-04-12 19:26:00,
2013-04-12 14:27:00,52.6,32.4,29.95,WNW,284,7.8,10.0,46,0.00,CLR,,0.00,WeatherDisplay:10.37,2013-04-12 19:27:00,
2013-04-12 14:32:00,53.2,33.5,29.95,NW,309,10.1,12.0,47,0.00,CLR,,0.00,WeatherDisplay:10.37,2013-04-12 19:32:00,
2013-04-12 14:37:00,52.8,32.6,29.95,West,263,7.5,11.5,46,0.00,CLR,,0.00,WeatherDisplay:10.37,2013-04-12 19:37:00,
2013-04-12 14:42:00,53.1,32.8,29.95,NW,307,6.1,10.4,46,0.00,CLR,,0.00,WeatherDisplay:10.37,2013-04-12 19:42:00,
2013-04-12 14:47:00,53.4,32.6,29.95,NW,311,9.6,20.0,45,0.00,CLR,,0.00,WeatherDisplay:10.37,2013-04-12 19:47:00,
2013-04-12 14:52:00,52.7,31.9,29.95,NW,314,6.5,11.5,45,0.00,CLR,,0.00,WeatherDisplay:10.37,2013-04-12 19:52:00,
2013-04-12 14:57:00,52.9,32.7,29.95,NW,307,11.5,12.0,46,0.00,CLR,,0.00,WeatherDisplay:10.37,2013-04-12 19:57:00,
2013-04-12 15:02:00,52.9,34.8,29.95,West,262,7.3,13.0,50,0.00,CLR,,0.00,WeatherDisplay:10.37,2013-04-12 20:02:00,
2013-04-12 15:07:00,53.9,33.6,29.95,WNW,288,7.7,11.5,46,0.00,CLR,,0.00,WeatherDisplay:10.37,2013-04-12 20:07:00,
2013-04-12 15:12:00,53.9,32.5,29.95,WSW,245,8.5,12.7,44,0.00,CLR,,0.00,WeatherDisplay:10.37,2013-04-12 20:12:00,
2013-04-12 15:17:00,53.7,32.3,29.95,WNW,298,9.7,13.8,44,0.00,CLR,,0.00,WeatherDisplay:10.37,2013-04-12 20:17:00,
2013-04-12 15:22:00,54.2,33.3,29.95,WNW,302,3.3,8.1,45,0.00,CLR,,0.00,WeatherDisplay:10.37,2013-04-12 20:22:00,
2013-04-12 15:27:00,54.5,34.7,29.95,WNW,292,7.3,9.2,47,0.00,CLR,,0.00,WeatherDisplay:10.37,2013-04-12 20:27:00,
2013-04-12 15:32:00,54.7,33.2,29.95,WNW,302,10.2,11.5,44,0.00,CLR,,0.00,WeatherDisplay:10.37,2013-04-12 20:32:00,
2013-04-12 15:37:00,53.6,32.8,29.95,NW,307,9.1,17.3,45,0.00,CLR,,0.00,WeatherDisplay:10.37,2013-04-12 20:37:00,
2013-04-12 15:43:00,53.9,34.1,29.95,NNW,329,4.9,10.4,47,0.00,CLR,,0.00,WeatherDisplay:10.37,2013-04-12 20:43:00,
2013-04-12 15:48:00,54.0,33.1,29.95,WNW,286,8.7,15.0,45,0.00,CLR,,0.00,WeatherDisplay:10.37,2013-04-12 20:48:00,
2013-04-12 15:53:00,54.2,33.9,29.95,West,267,9.8,11.0,46,0.00,CLR,,0.00,WeatherDisplay:10.37,2013-04-12 20:53:00,
2013-04-12 15:58:00,54.0,33.7,29.95,West,281,7.3,10.4,46,0.00,CLR,,0.00,WeatherDisplay:10.37,2013-04-12 20:58:00,
2013-04-12 16:03:00,55.1,34.7,29.94,West,270,5.6,5.8,46,0.00,CLR,,0.00,WeatherDisplay:10.37,2013-04-12 21:03:00,
2013-04-12 16:08:00,55.3,33.7,29.94,WNW,297,7.0,10.4,44,0.00,CLR,,0.00,WeatherDisplay:10.37,2013-04-12 21:08:00,
2013-04-12 16:13:00,54.9,33.9,29.94,NW,308,6.9,10.4,45,0.00,CLR,,0.00,WeatherDisplay:10.37,2013-04-12 21:13:00,
2013-04-12 16:18:00,55.1,34.1,29.94,NW,307,7.6,10.4,45,0.00,CLR,,0.00,WeatherDisplay:10.37,2013-04-12 21:18:00,
2013-04-12 16:23:00,55.1,36.3,29.94,WNW,290,4.7,6.9,49,0.00,CLR,,0.00,WeatherDisplay:10.37,2013-04-12 21:23:00,
2013-04-12 16:28:00,55.3,33.7,29.94,NW,312,11.6,16.0,44,0.00,CLR,,0.00,WeatherDisplay:10.37,2013-04-12 21:28:00,
2013-04-12 16:33:00,54.8,34.9,29.94,WNW,291,7.9,11.5,47,0.00,CLR,,0.00,WeatherDisplay:10.37,2013-04-12 21:33:00,
2013-04-12 16:38:00,54.6,34.2,29.94,WNW,302,8.3,11.5,46,0.00,CLR,,0.00,WeatherDisplay:10.37,2013-04-12 21:38:00,
2013-04-12 16:43:00,55.1,34.7,29.94,West,262,7.6,11.5,46,0.00,CLR,,0.00,WeatherDisplay:10.37,2013-04-12 21:43:00,
2013-04-12 16:48:00,54.6,33.1,29.94,NW,312,6.2,11.5,44,0.00,CLR,,0.00,WeatherDisplay:10.37,2013-04-12 21:48:00,
2013-04-12 16:53:00,55.0,34.0,29.94,WNW,300,8.0,10.4,45,0.00,CLR,,0.00,WeatherDisplay:10.37,2013-04-12 21:53:00,
2013-04-12 16:58:00,54.4,34.0,29.94,West,264,6.1,10.4,46,0.00,CLR,,0.00,WeatherDisplay:10.37,2013-04-12 21:58:00,
2013-04-12 17:03:00,54.7,34.8,29.94,WNW,284,6.3,10.4,47,0.00,CLR,,0.00,WeatherDisplay:10.37,2013-04-12 22:03:00,
2013-04-12 17:08:00,54.4,33.5,29.95,West,269,7.2,10.4,45,0.00,CLR,,0.00,WeatherDisplay:10.37,2013-04-12 22:08:00,
2013-04-12 17:13:00,55.0,34.0,29.95,WSW,254,3.5,9.2,45,0.00,CLR,,0.00,WeatherDisplay:10.37,2013-04-12 22:13:00,
2013-04-12 17:18:00,55.1,33.0,29.95,NW,319,7.3,10.4,43,0.00,CLR,,0.00,WeatherDisplay:10.37,2013-04-12 22:18:00,
2013-04-12 17:23:00,55.0,33.5,29.95,WNW,301,5.9,8.0,44,0.00,CLR,,0.00,WeatherDisplay:10.37,2013-04-12 22:23:00,
2013-04-12 17:28:00,55.0,34.6,29.95,WNW,290,4.6,6.9,46,0.00,CLR,,0.00,WeatherDisplay:10.37,2013-04-12 22:28:00,
2013-04-12 17:33:00,54.9,34.5,29.95,NW,315,4.7,5.8,46,0.00,CLR,,0.00,WeatherDisplay:10.37,2013-04-12 22:33:00,
2013-04-12 17:38:00,55.2,35.3,29.95,NW,309,3.9,6.9,47,0.00,CLR,,0.00,WeatherDisplay:10.37,2013-04-12 22:38:00,
2013-04-12 17:43:00,55.0,35.1,29.95,WNW,284,5.6,11.5,47,0.00,CLR,,0.00,WeatherDisplay:10.37,2013-04-12 22:43:00,
2013-04-12 17:48:00,55.2,35.3,29.95,WNW,302,7.2,10.4,47,0.00,CLR,,0.00,WeatherDisplay:10.37,2013-04-12 22:48:00,
2013-04-12 17:53:00,55.1,35.2,29.95,West,281,7.2,11.5,47,0.00,CLR,,0.00,WeatherDisplay:10.37,2013-04-12 22:53:00,
2013-04-12 17:58:00,54.7,34.3,29.95,West,277,6.5,9.2,46,0.00,CLR,,0.00,WeatherDisplay:10.37,2013-04-12 22:58:00,
2013-04-12 18:03:00,54.7,35.4,29.95,WNW,293,3.6,4.6,48,0.00,CLR,,0.00,WeatherDisplay:10.37,2013-04-12 23:03:00,
2013-04-12 18:08:00,54.1,34.3,29.95,NW,310,9.1,12.7,47,0.00,CLR,,0.00,WeatherDisplay:10.37,2013-04-12 23:08:00,
2013-04-12 18:13:00,54.1,35.3,29.95,NW,307,5.8,6.9,49,0.00,CLR,,0.00,WeatherDisplay:10.37,2013-04-12 23:13:00,
2013-04-12 18:18:00,54.0,34.7,29.94,NW,326,3.0,8.1,48,0.00,CLR,,0.00,WeatherDisplay:10.37,2013-04-12 23:18:00,
2013-04-12 18:23:00,54.4,35.6,29.94,NW,319,3.6,4.6,49,0.00,CLR,,0.00,WeatherDisplay:10.37,2013-04-12 23:23:00,
2013-04-12 18:28:00,54.3,35.0,29.95,North,356,7.4,11.0,48,0.00,CLR,,0.00,WeatherDisplay:10.37,2013-04-12 23:28:00,
2013-04-12 18:33:00,53.8,35.1,29.95,WNW,300,6.0,7.0,49,0.00,CLR,,0.00,WeatherDisplay:10.37,2013-04-12 23:33:00,
2013-04-12 18:38:00,53.7,35.5,29.95,NNW,334,3.7,6.9,50,0.00,CLR,,0.00,WeatherDisplay:10.37,2013-04-12 23:38:00,
2013-04-12 18:43:00,54.0,36.3,29.95,West,270,1.2,3.5,51,0.00,CLR,,0.00,WeatherDisplay:10.37,2013-04-12 23:43:00,
2013-04-12 18:48:00,54.0,35.3,29.95,West,276,3.8,4.6,49,0.00,CLR,,0.00,WeatherDisplay:10.37,2013-04-12 23:48:00,
2013-04-12 18:53:00,53.9,35.7,29.95,NW,315,3.2,4.6,50,0.00,CLR,,0.00,WeatherDisplay:10.37,2013-04-12 23:53:00,
2013-04-12 18:58:00,53.7,36.0,29.95,WNW,300,2.7,3.5,51,0.00,CLR,,0.00,WeatherDisplay:10.37,2013-04-12 23:58:00,
2013-04-12 19:03:00,53.2,35.0,29.95,WNW,302,4.5,5.8,50,0.00,CLR,,0.00,WeatherDisplay:10.37,2013-04-13 00:03:00,
2013-04-12 19:08:00,52.9,35.2,29.95,West,263,4.9,9.2,51,0.00,CLR,,0.00,WeatherDisplay:10.37,2013-04-13 00:08:00,
2013-04-12 19:13:00,52.6,35.0,29.95,NW,305,4.5,5.0,51,0.00,CLR,,0.00,WeatherDisplay:10.37,2013-04-13 00:13:00,
2013-04-12 19:18:00,52.2,35.1,29.96,NW,309,4.4,5.0,52,0.00,CLR,,0.00,WeatherDisplay:10.37,2013-04-13 00:18:00,
2013-04-12 19:23:00,51.7,35.1,29.96,NW,309,2.2,3.5,53,0.00,CLR,,0.00,WeatherDisplay:10.37,2013-04-13 00:23:00,
2013-04-12 19:28:00,51.3,34.7,29.96,NW,307,3.7,5.0,53,0.00,CLR,,0.00,WeatherDisplay:10.37,2013-04-13 00:28:00,
2013-04-12 19:33:00,51.0,34.9,29.95,NW,322,4.8,5.8,54,0.00,CLR,,0.00,WeatherDisplay:10.37,2013-04-13 00:33:00,
2013-04-12 19:38:00,50.8,34.7,29.95,NW,320,3.2,5.8,54,0.00,CLR,,0.00,WeatherDisplay:10.37,2013-04-13 00:38:00,
2013-04-12 19:43:00,50.4,34.8,29.95,NNW,332,1.7,3.5,55,0.00,CLR,,0.00,WeatherDisplay:10.37,2013-04-13 00:43:00,
2013-04-12 19:48:00,50.1,35.0,29.95,NW,312,1.2,2.3,56,0.00,CLR,,0.00,WeatherDisplay:10.37,2013-04-13 00:48:00,
2013-04-12 19:53:00,49.8,35.2,29.96,NW,307,1.0,1.1,57,0.00,CLR,,0.00,WeatherDisplay:10.37,2013-04-13 00:53:00,
2013-04-12 19:58:00,49.5,34.9,29.96,NW,307,0.3,3.5,57,0.00,CLR,,0.00,WeatherDisplay:10.37,2013-04-13 00:58:00,
2013-04-12 20:03:00,49.3,35.1,29.96,WNW,302,0.7,1.1,58,0.00,,,0.00,WeatherDisplay:10.37,2013-04-13 01:03:00,
2013-04-12 20:08:00,49.1,34.9,29.97,WNW,293,0.9,1.1,58,0.00,,,0.00,WeatherDisplay:10.37,2013-04-13 01:08:00,
2013-04-12 20:13:00,48.9,35.2,29.97,NW,305,0.5,1.1,59,0.00,,,0.00,WeatherDisplay:10.37,2013-04-13 01:13:00,
2013-04-12 20:18:00,48.8,35.1,29.97,WNW,298,1.0,1.1,59,0.00,,,0.00,WeatherDisplay:10.37,2013-04-13 01:18:00,
2013-04-12 20:23:00,48.7,35.0,29.97,NW,309,1.3,2.3,59,0.00,,,0.00,WeatherDisplay:10.37,2013-04-13 01:23:00,
2013-04-12 20:28:00,48.6,35.3,29.98,WNW,291,2.2,2.3,60,0.00,,,0.00,WeatherDisplay:10.37,2013-04-13 01:28:00,
2013-04-12 20:33:00,48.6,35.3,29.98,NW,304,1.9,2.3,60,0.00,,,0.00,WeatherDisplay:10.37,2013-04-13 01:33:00,
2013-04-12 20:39:00,48.5,35.2,29.98,NW,312,2.1,2.3,60,0.00,,,0.00,WeatherDisplay:10.37,2013-04-13 01:39:00,
2013-04-12 20:44:00,48.3,35.0,29.98,NW,307,1.2,2.3,60,0.00,,,0.00,WeatherDisplay:10.37,2013-04-13 01:44:00,
2013-04-12 20:49:00,48.3,35.5,29.98,NW,317,1.1,3.5,61,0.00,,,0.00,WeatherDisplay:10.37,2013-04-13 01:49:00,
2013-04-12 20:54:00,48.2,35.4,29.98,WNW,298,0.7,1.1,61,0.00,,,0.00,WeatherDisplay:10.37,2013-04-13 01:54:00,
2013-04-12 20:59:00,48.0,35.2,29.98,NNW,330,1.0,1.1,61,0.00,,,0.00,WeatherDisplay:10.37,2013-04-13 01:59:00,
2013-04-12 21:04:00,47.6,35.2,29.98,NW,316,0.7,2.3,62,0.00,,,0.00,WeatherDisplay:10.37,2013-04-13 02:04:00,
2013-04-12 21:09:00,47.5,35.1,29.98,NW,319,0.3,1.1,62,0.00,,,0.00,WeatherDisplay:10.37,2013-04-13 02:09:00,
2013-04-12 21:14:00,47.7,35.3,29.98,NW,319,1.5,2.3,62,0.00,,,0.00,WeatherDisplay:10.37,2013-04-13 02:14:00,
2013-04-12 21:19:00,47.7,35.3,29.98,NW,305,1.4,2.3,62,0.00,,,0.00,WeatherDisplay:10.37,2013-04-13 02:19:00,
2013-04-12 21:24:00,47.5,35.1,29.98,NNW,332,0.8,1.1,62,0.00,,,0.00,WeatherDisplay:10.37,2013-04-13 02:24:00,
2013-04-12 21:29:00,47.3,34.9,29.99,NW,324,0.8,1.1,62,0.00,,,0.00,WeatherDisplay:10.37,2013-04-13 02:29:00,
2013-04-12 21:34:00,47.3,34.9,29.99,NW,315,1.8,3.5,62,0.00,,,0.00,WeatherDisplay:10.37,2013-04-13 02:34:00,
2013-04-12 21:39:00,47.2,34.8,29.99,NW,305,1.0,1.1,62,0.00,,,0.00,WeatherDisplay:10.37,2013-04-13 02:39:00,
2013-04-12 21:44:00,47.0,35.0,29.99,NW,307,0.3,1.1,63,0.00,,,0.00,WeatherDisplay:10.37,2013-04-13 02:44:00,
2013-04-12 21:49:00,46.7,35.2,30.00,NW,321,0.9,2.3,64,0.00,,,0.00,WeatherDisplay:10.37,2013-04-13 02:49:00,
2013-04-12 21:54:00,46.5,35.0,30.00,NW,325,0.0,1.1,64,0.00,,,0.00,WeatherDisplay:10.37,2013-04-13 02:54:00,
2013-04-12 21:59:00,46.6,35.1,30.00,NNW,330,0.2,1.1,64,0.00,,,0.00,WeatherDisplay:10.37,2013-04-13 02:59:00,
2013-04-12 22:04:00,46.7,34.8,30.00,NNW,335,0.6,1.1,63,0.00,,,0.00,WeatherDisplay:10.37,2013-04-13 03:04:00,
2013-04-12 22:09:00,46.6,35.1,30.00,NNW,334,0.4,1.1,64,0.00,,,0.00,WeatherDisplay:10.37,2013-04-13 03:09:00,
2013-04-12 22:14:00,46.4,34.9,30.00,NNW,334,0.0,0.0,64,0.00,,,0.00,WeatherDisplay:10.37,2013-04-13 03:14:00,
2013-04-12 22:19:00,46.3,34.8,30.00,NW,307,0.5,1.1,64,0.00,,,0.00,WeatherDisplay:10.37,2013-04-13 03:19:00,
2013-04-12 22:24:00,46.2,34.7,30.00,NW,316,0.1,1.1,64,0.00,,,0.00,WeatherDisplay:10.37,2013-04-13 03:24:00,
2013-04-12 22:29:00,46.0,34.9,30.00,NNW,332,0.3,1.1,65,0.00,,,0.00,WeatherDisplay:10.37,2013-04-13 03:29:00,
2013-04-12 22:34:00,45.7,35.0,30.01,NNW,328,0.0,0.0,66,0.00,,,0.00,WeatherDisplay:10.37,2013-04-13 03:34:00,
2013-04-12 22:39:00,44.3,34.4,30.01,SW,236,0.0,0.0,68,0.00,,,0.00,WeatherDisplay:10.37,2013-04-13 03:39:00,
2013-04-12 22:44:00,43.5,34.4,30.01,SW,236,0.0,0.0,70,0.00,,,0.00,WeatherDisplay:10.37,2013-04-13 03:44:00,
2013-04-12 22:49:00,43.4,34.3,30.01,SW,236,0.0,0.0,70,0.00,,,0.00,WeatherDisplay:10.37,2013-04-13 03:49:00,
2013-04-12 22:54:00,43.8,34.6,30.01,SW,236,0.0,0.0,70,0.00,,,0.00,WeatherDisplay:10.37,2013-04-13 03:54:00,
2013-04-12 22:59:00,43.4,35.0,30.01,SW,228,0.7,1.1,72,0.00,,,0.00,WeatherDisplay:10.37,2013-04-13 03:59:00,
2013-04-12 23:00:00,43.3,34.9,30.01,SW,228,0.3,1.1,72,0.00,,,0.00,WeatherDisplay:10.37,2013-04-13 04:00:00,
2013-04-12 23:05:00,43.0,34.9,30.01,SW,228,0.0,0.0,73,0.00,,,0.00,WeatherDisplay:10.37,2013-04-13 04:05:00,
2013-04-12 23:10:00,42.6,34.5,30.02,SW,231,0.0,0.0,73,0.00,CLR,,0.00,WeatherDisplay:10.37,2013-04-13 04:10:00,
2013-04-12 23:15:00,42.5,34.5,30.02,SW,232,0.0,0.0,73,0.00,CLR,,0.00,WeatherDisplay:10.37,2013-04-13 04:15:00,
2013-04-12 23:20:00,43.2,34.8,30.02,SW,231,0.0,0.0,72,0.00,CLR,,0.00,WeatherDisplay:10.37,2013-04-13 04:20:00,
2013-04-12 23:25:00,43.7,34.9,30.02,West,273,0.9,1.1,71,0.00,CLR,,0.00,WeatherDisplay:10.37,2013-04-13 04:25:00,
2013-04-12 23:30:00,44.2,35.0,30.03,WNW,296,1.3,2.3,70,0.00,CLR,,0.00,WeatherDisplay:10.37,2013-04-13 04:30:00,
2013-04-12 23:35:00,44.4,34.9,30.03,WNW,296,0.0,0.0,69,0.00,CLR,,0.00,WeatherDisplay:10.37,2013-04-13 04:35:00,
2013-04-12 23:40:00,44.0,34.8,30.03,WNW,285,1.0,1.1,70,0.00,CLR,,0.00,WeatherDisplay:10.37,2013-04-13 04:40:00,
2013-04-12 23:45:00,44.0,34.8,30.03,WNW,285,0.0,0.0,70,0.00,CLR,,0.00,WeatherDisplay:10.37,2013-04-13 04:45:00,
2013-04-12 23:50:00,43.7,34.6,30.03,WNW,285,0.0,0.0,70,0.00,CLR,,0.00,WeatherDisplay:10.37,2013-04-13 04:50:00,
2013-04-12 23:55:00,43.3,34.5,30.03,WNW,285,0.0,0.0,71,0.00,CLR,,0.00,WeatherDisplay:10.37,2013-04-13 04:55:00,